"startDT [UTC]","vpos","CH4 [ppm]","stdev(CH4) [ppm]","CO2 [ppm]","stdev(CO2) [ppm]","H2O_reported [%]","stdev(H2O_reported)","CavityPressure [torr]","CavityTemp [C]","OutletValve","CH4_dry [ppm]","CO2_dry [ppm]","DasTemp [C]","EtalonTemp [C]","WarmBoxTemp [C]","MPVPosition","T_ECpre [C]","T_EC1 [C]","T_EC2 [C]","p_inlet [hPa]","p_in [hPa]","p_out [hPa]","T_inlet [C]","RH_inlet [%]","dwpt_inlet [C]","T_vent [C]","RH_vent [%]","dwpt_vent [C]","flow_vent [l min-1]","flow_inlet [l min-1]","dwpt_sample [C]","T_room [C]"
2015-03-09 00:00:00,0.0,1.93164,0.00039,404.847,0.035,0.1215,0.0019,139.999,45.000,34218.96279,1.93397,405.439,33.249,45.068,45.000,0.00,0.09,-272.70,-272.75,-2,971,-1,19.8,4.1,-23.3,20.1,4.1,-23.1,5.73,1.99,-19.0,26.4
2015-03-09 00:01:00,0.0,1.93155,0.00040,404.828,0.025,0.1226,0.0014,139.999,45.000,34220.37931,1.93388,405.426,33.262,45.068,45.000,0.00,0.09,-272.70,-272.76,-2,970,-1,19.8,4.1,-23.2,20.1,4.1,-23.0,5.73,1.99,-18.9,26.4
2015-03-09 00:02:00,0.0,1.93150,0.00033,404.822,0.024,0.1225,0.0016,139.999,45.000,34220.51589,1.93383,405.419,33.263,45.068,45.000,0.00,0.09,-272.70,-272.75,-2,971,-1,19.8,4.1,-23.2,20.1,4.1,-23.0,5.73,2.00,-18.9,26.4
2015-03-09 00:03:00,0.0,1.93150,0.00038,404.846,0.043,0.1225,0.0016,139.998,45.000,34219.24492,1.93386,405.444,33.252,45.068,45.000,0.00,0.09,-272.70,-272.76,-2,971,-1,19.8,4.1,-23.2,20.1,4.1,-23.0,5.73,1.99,-18.9,26.4
2015-03-09 00:04:00,0.0,1.93154,0.00048,404.861,0.026,0.1224,0.0020,139.999,45.000,34221.19974,1.93383,405.459,33.248,45.068,45.000,0.00,0.09,-272.69,-272.76,-2,971,-1,19.8,4.1,-23.2,20.1,4.1,-23.0,5.73,2.00,-18.9,26.4
2015-03-09 00:05:00,0.0,1.93146,0.00047,404.816,0.041,0.1229,0.0018,140.000,45.000,34220.24914,1.93382,405.416,33.245,45.068,45.000,0.00,0.09,-272.69,-272.75,-2,971,-1,19.8,4.1,-23.2,20.1,4.1,-23.0,5.73,1.99,-18.9,26.4
2015-03-09 00:06:00,0.0,1.93175,0.00031,404.824,0.032,0.1231,0.0014,139.999,45.000,34220.71097,1.93410,405.424,33.223,45.068,45.000,0.00,0.09,-272.70,-272.75,-2,970,-1,19.8,4.1,-23.2,20.1,4.1,-22.9,5.73,2.00,-18.9,26.4
2015-03-09 00:07:00,0.0,1.93171,0.00048,404.813,0.030,0.1235,0.0020,140.000,45.000,34220.63724,1.93404,405.415,33.188,45.068,45.000,0.00,0.09,-272.70,-272.76,-2,971,-1,19.8,4.1,-23.1,20.1,4.1,-22.9,5.73,2.00,-18.9,26.4
2015-03-09 00:08:00,0.0,1.93146,0.00029,404.810,0.039,0.1243,0.0018,139.999,45.000,34221.17503,1.93385,405.417,33.186,45.068,45.000,0.00,0.09,-272.70,-272.75,-2,970,-1,19.8,4.1,-23.1,20.1,4.1,-22.9,5.73,2.00,-18.9,26.4
2015-03-09 00:09:00,0.0,1.93141,0.00029,404.830,0.030,0.1229,0.0026,140.001,45.000,34223.06215,1.93376,405.429,33.188,45.069,45.001,0.00,0.09,-272.70,-272.75,-2,971,-1,19.8,4.1,-23.1,20.1,4.1,-22.9,5.73,2.01,-18.9,26.4
2015-03-09 00:10:00,0.0,1.93133,0.00033,404.839,0.024,0.1224,0.0016,139.998,45.000,34224.61675,1.93367,405.435,33.184,45.068,45.000,0.00,0.09,-272.70,-272.76,-2,971,-1,19.8,4.1,-23.2,20.1,4.1,-23.0,5.73,2.01,-18.9,26.4
2015-03-09 00:11:00,0.0,1.93134,0.00036,404.833,0.037,0.1220,0.0018,140.000,45.000,34225.88107,1.93367,405.428,33.182,45.068,45.000,0.00,0.09,-272.70,-272.76,-2,971,-1,19.8,4.1,-23.2,20.1,4.1,-23.0,5.73,2.02,-18.9,26.4
2015-03-09 00:12:00,0.0,1.93092,0.00044,404.803,0.025,0.1224,0.0014,140.002,45.000,34224.84104,1.93327,405.400,33.195,45.068,45.000,0.00,0.09,-272.69,-272.75,-2,971,-1,19.8,4.1,-23.3,20.1,4.1,-23.0,5.73,2.01,-18.9,26.4
2015-03-09 00:13:00,0.0,1.93115,0.00038,404.828,0.021,0.1227,0.0017,139.999,45.000,34222.18146,1.93343,405.428,33.238,45.068,45.000,0.00,0.09,-272.70,-272.76,-2,970,-1,19.8,4.1,-23.3,20.1,4.1,-23.1,5.73,2.02,-18.9,26.4
2015-03-09 00:14:00,0.0,1.93105,0.00038,404.821,0.019,0.1212,0.0021,140.001,45.000,34224.82445,1.93342,405.412,33.248,45.068,45.000,0.00,0.09,-272.70,-272.76,-2,971,-1,19.8,4.0,-23.3,20.1,4.1,-23.1,5.73,2.02,-18.9,26.4
2015-03-09 00:15:00,0.0,1.93106,0.00022,404.807,0.040,0.1216,0.0011,139.998,45.000,34224.88213,1.93335,405.399,33.270,45.068,45.000,0.00,0.09,-272.69,-272.75,-2,970,-1,19.8,4.0,-23.3,20.1,4.1,-23.1,5.73,2.02,-18.9,26.4
2015-03-09 00:16:00,0.0,1.93121,0.00033,404.827,0.035,0.1209,0.0020,140.000,45.000,34223.56092,1.93351,405.416,33.281,45.067,45.000,0.00,0.09,-272.69,-272.75,-2,971,-1,19.8,4.0,-23.3,20.1,4.0,-23.1,5.73,2.02,-18.9,26.4
2015-03-09 00:17:00,0.0,1.93161,0.00027,404.840,0.039,0.1218,0.0014,140.003,45.000,34219.55018,1.93391,405.434,33.295,45.067,44.999,0.00,0.09,-272.70,-272.76,-2,971,-1,19.8,4.0,-23.4,20.1,4.0,-23.1,5.73,2.02,-18.9,26.4
2015-03-09 00:18:00,0.0,1.93129,0.00038,404.825,0.033,0.1215,0.0016,139.997,45.000,34220.48551,1.93364,405.419,33.296,45.067,45.000,0.00,0.09,-272.70,-272.76,-2,970,-1,19.8,4.0,-23.3,20.1,4.0,-23.1,5.73,2.01,-18.9,26.4
2015-03-09 00:19:00,0.0,1.93121,0.00034,404.819,0.026,0.1208,0.0010,140.000,45.000,34223.19702,1.93351,405.407,33.278,45.068,45.000,0.00,0.09,-272.69,-272.76,-2,971,-1,19.8,4.0,-23.4,20.1,4.1,-23.1,5.73,2.01,-18.9,26.4
2015-03-09 00:20:00,0.0,1.93135,0.00034,404.845,0.039,0.1203,0.0018,140.004,45.000,34221.59833,1.93363,405.432,33.251,45.068,45.000,0.00,0.09,-272.70,-272.76,-2,971,-1,19.8,4.0,-23.4,20.1,4.0,-23.1,5.73,2.01,-18.9,26.4
2015-03-09 00:21:00,0.0,1.93160,0.00037,404.850,0.032,0.1214,0.0019,139.999,45.000,34218.79541,1.93391,405.443,33.201,45.068,45.000,0.00,0.09,-272.70,-272.76,-2,971,-1,19.8,4.0,-23.3,20.1,4.0,-23.1,5.73,2.01,-18.9,26.4
2015-03-09 00:22:00,0.0,1.93147,0.00034,404.834,0.028,0.1224,0.0018,139.999,45.000,34220.96837,1.93380,405.431,33.190,45.068,45.000,0.00,0.09,-272.70,-272.75,-2,971,-1,19.8,4.1,-23.3,20.1,4.1,-23.1,5.73,2.01,-18.9,26.4
2015-03-09 00:23:00,0.0,1.93173,0.00036,404.836,0.027,0.1228,0.0017,139.998,45.000,34218.92236,1.93404,405.435,33.185,45.068,45.001,0.00,0.09,-272.70,-272.75,-2,971,-1,19.8,4.1,-23.2,20.1,4.1,-23.0,5.73,2.01,-18.9,26.4
2015-03-09 00:24:00,0.0,1.93133,0.00037,404.832,0.020,0.1216,0.0021,139.999,45.000,34217.67946,1.93369,405.425,33.184,45.069,45.001,0.00,0.09,-272.70,-272.76,-3,971,-1,19.8,4.1,-23.2,20.1,4.1,-23.0,5.73,2.00,-18.9,26.4
2015-03-09 00:25:00,0.0,1.93156,0.00026,404.831,0.031,0.1221,0.0013,140.000,45.000,34220.09400,1.93387,405.426,33.203,45.069,45.001,0.00,0.09,-272.70,-272.75,-2,970,-1,19.8,4.1,-23.2,20.1,4.1,-23.0,5.73,2.00,-18.9,26.4
2015-03-09 00:26:00,0.0,1.93125,0.00036,404.846,0.040,0.1217,0.0015,139.999,45.000,34220.01606,1.93357,405.439,33.214,45.068,45.000,0.00,0.09,-272.70,-272.76,-2,971,-1,19.8,4.1,-23.3,20.1,4.1,-23.0,5.73,2.01,-18.9,26.4
2015-03-09 00:27:00,0.0,1.93129,0.00032,404.827,0.036,0.1221,0.0018,140.001,45.000,34221.50687,1.93359,405.423,33.197,45.068,45.000,0.00,0.09,-272.70,-272.76,-2,971,-1,19.8,4.1,-23.3,20.1,4.1,-23.0,5.73,1.99,-18.9,26.4
2015-03-09 00:28:00,0.0,1.93160,0.00026,404.853,0.032,0.1220,0.0016,139.999,45.000,34219.27653,1.93394,405.448,33.190,45.068,45.000,0.00,0.09,-272.70,-272.76,-2,970,-1,19.8,4.1,-23.3,20.1,4.1,-23.0,5.73,2.00,-18.9,26.4
2015-03-09 00:29:00,0.0,1.93123,0.00026,404.824,0.035,0.1220,0.0020,139.998,45.000,34220.07791,1.93357,405.421,33.187,45.068,45.000,0.00,0.09,-272.70,-272.75,-2,971,-1,19.8,4.1,-23.2,20.1,4.1,-23.0,5.73,1.99,-18.9,26.4
2015-03-09 00:30:00,0.0,1.93119,0.00036,404.827,0.021,0.1240,0.0020,139.999,45.000,34221.58105,1.93353,405.431,33.188,45.068,45.000,0.00,0.09,-272.70,-272.76,-2,970,-1,19.8,4.1,-23.1,20.1,4.1,-22.9,5.73,1.99,-18.9,26.4
2015-03-09 00:31:00,0.0,1.93117,0.00037,404.846,0.031,0.1240,0.0016,139.997,45.000,34219.76156,1.93353,405.450,33.188,45.068,45.000,0.00,0.09,-272.70,-272.76,-2,971,-1,19.8,4.1,-23.1,20.1,4.1,-22.9,5.73,1.99,-18.9,26.4
2015-03-09 00:32:00,0.0,1.93118,0.00042,404.842,0.028,0.1226,0.0017,140.000,45.000,34218.35643,1.93352,405.442,33.193,45.068,45.000,0.00,0.09,-272.69,-272.76,-2,971,-1,19.8,4.1,-23.2,20.1,4.1,-22.9,5.73,1.99,-18.9,26.4
2015-03-09 00:33:00,0.0,1.93148,0.00026,404.819,0.026,0.1220,0.0019,140.001,45.000,34219.72378,1.93383,405.414,33.209,45.068,45.000,0.00,0.09,-272.70,-272.76,-2,971,-1,19.8,4.1,-23.3,20.1,4.1,-23.0,5.73,2.00,-18.9,26.4
2015-03-09 00:34:00,0.0,1.93130,0.00030,404.828,0.030,0.1224,0.0017,140.000,45.000,34220.01964,1.93360,405.424,33.221,45.068,45.000,0.00,0.09,-272.70,-272.76,-2,971,-1,19.8,4.1,-23.2,20.1,4.1,-23.0,5.73,2.00,-18.9,26.4
2015-03-09 00:35:00,0.0,1.93152,0.00028,404.820,0.027,0.1222,0.0018,139.999,45.000,34219.45281,1.93386,405.418,33.233,45.068,45.000,0.00,0.09,-272.70,-272.75,-2,970,-1,19.8,4.1,-23.2,20.1,4.1,-23.0,5.73,2.00,-18.9,26.4
2015-03-09 00:36:00,0.0,1.93153,0.00035,404.841,0.030,0.1231,0.0016,139.998,45.000,34220.28878,1.93387,405.442,33.235,45.068,45.000,0.00,0.09,-272.70,-272.75,-2,971,-1,19.8,4.1,-23.2,20.1,4.1,-23.0,5.73,2.00,-18.9,26.4
2015-03-09 00:37:00,0.0,1.93101,0.00045,404.816,0.043,0.1229,0.0014,139.999,45.000,34223.27989,1.93335,405.414,33.248,45.068,45.000,0.00,0.09,-272.70,-272.75,-2,970,-1,19.8,4.1,-23.2,20.1,4.1,-23.0,5.73,2.01,-18.9,26.4
2015-03-09 00:38:00,0.0,1.93109,0.00035,404.824,0.027,0.1226,0.0021,140.000,45.000,34222.69853,1.93343,405.424,33.250,45.068,45.000,0.00,0.09,-272.70,-272.76,-2,971,-1,19.8,4.1,-23.2,20.1,4.1,-22.9,5.73,2.01,-18.9,26.4
2015-03-09 00:39:00,0.0,1.93137,0.00024,404.820,0.035,0.1235,0.0018,140.001,45.000,34224.47901,1.93370,405.421,33.250,45.068,45.000,0.00,0.09,-272.70,-272.75,-2,971,-1,19.8,4.1,-23.2,20.1,4.1,-22.9,5.73,2.00,-18.8,26.4
2015-03-09 00:40:00,0.0,1.93132,0.00031,404.837,0.024,0.1241,0.0015,140.001,45.000,34225.30692,1.93370,405.443,33.250,45.068,45.000,0.00,0.09,-272.70,-272.76,-2,970,-1,19.8,4.1,-23.1,20.1,4.1,-22.9,5.73,2.02,-18.9,26.4
2015-03-09 00:41:00,0.0,1.93107,0.00037,404.827,0.031,0.1241,0.0018,140.000,45.000,34223.22314,1.93345,405.432,33.247,45.068,45.000,0.00,0.09,-272.70,-272.76,-2,971,-1,19.8,4.1,-23.1,20.1,4.1,-22.9,5.73,2.02,-18.9,26.4
2015-03-09 00:42:00,0.0,1.93092,0.00024,404.829,0.028,0.1242,0.0019,139.998,45.000,34224.90338,1.93329,405.435,33.250,45.068,45.000,0.00,0.09,-272.69,-272.75,-2,971,-1,19.8,4.1,-23.1,20.1,4.1,-22.8,5.73,2.01,-18.9,26.4
2015-03-09 00:43:00,0.0,1.93090,0.00038,404.817,0.027,0.1228,0.0025,140.000,45.000,34226.03174,1.93323,405.415,33.249,45.068,45.000,0.00,0.09,-272.70,-272.75,-2,971,-1,19.8,4.1,-23.2,20.1,4.1,-23.0,5.73,2.02,-18.9,26.4
2015-03-09 00:44:00,0.0,1.93112,0.00043,404.836,0.029,0.1226,0.0010,139.999,45.000,34223.84645,1.93344,405.434,33.249,45.068,45.000,0.00,0.09,-272.70,-272.76,-2,971,-1,19.8,4.1,-23.2,20.1,4.1,-23.0,5.73,2.01,-18.8,26.5
2015-03-09 00:45:00,0.0,1.93113,0.00041,404.814,0.031,0.1230,0.0015,140.001,45.000,34225.71571,1.93350,405.416,33.250,45.068,45.000,0.00,0.09,-272.70,-272.75,-2,971,-1,19.8,4.1,-23.2,20.1,4.1,-22.9,5.73,2.01,-18.9,26.4
2015-03-09 00:46:00,0.0,1.93083,0.00037,404.806,0.029,0.1233,0.0018,140.001,45.000,34225.66155,1.93317,405.407,33.245,45.068,45.000,0.00,0.09,-272.69,-272.75,-2,971,-1,19.8,4.1,-23.2,20.1,4.1,-22.9,5.73,2.02,-18.9,26.4
2015-03-09 00:47:00,0.0,1.93048,0.00044,404.815,0.032,0.1228,0.0010,139.997,45.000,34225.20265,1.93281,405.414,33.249,45.068,45.000,0.00,0.09,-272.70,-272.76,-2,971,-1,19.8,4.1,-23.3,20.1,4.1,-23.0,5.73,2.01,-18.9,26.4
2015-03-09 00:48:00,0.0,1.93075,0.00041,404.806,0.037,0.1217,0.0018,139.999,45.000,34224.84509,1.93308,405.399,33.291,45.068,45.000,0.00,0.09,-272.70,-272.76,-2,971,-1,19.8,4.1,-23.3,20.1,4.1,-23.0,5.73,2.01,-18.9,26.4
2015-03-09 00:49:00,0.0,1.93080,0.00031,404.811,0.044,0.1227,0.0016,140.000,45.000,34225.43804,1.93314,405.410,33.321,45.068,45.000,0.00,0.09,-272.70,-272.75,-2,971,-1,19.8,4.1,-23.2,20.1,4.1,-23.0,5.73,2.02,-18.8,26.4
2015-03-09 00:50:00,0.0,1.93077,0.00034,404.807,0.028,0.1228,0.0016,139.997,45.000,34223.79444,1.93309,405.405,33.358,45.068,45.000,0.00,0.09,-272.69,-272.75,-2,970,-1,19.8,4.1,-23.2,20.1,4.1,-23.0,5.73,2.01,-18.8,26.4
2015-03-09 00:51:00,0.0,1.93079,0.00030,404.814,0.035,0.1229,0.0017,139.999,45.000,34225.05342,1.93316,405.415,33.335,45.067,44.999,0.00,0.09,-272.71,-272.76,-2,971,-1,19.8,4.1,-23.1,20.1,4.1,-22.9,5.73,2.01,-18.8,26.4
2015-03-09 00:52:00,0.0,1.93084,0.00037,404.811,0.030,0.1232,0.0018,139.998,45.000,34222.29447,1.93314,405.410,33.346,45.068,45.000,0.00,0.09,-272.70,-272.75,-2,971,-1,19.8,4.1,-23.2,20.1,4.1,-22.9,5.73,2.01,-18.9,26.4
2015-03-09 00:53:00,0.0,1.93102,0.00044,404.817,0.020,0.1233,0.0021,140.001,45.000,34221.89930,1.93337,405.420,33.330,45.067,45.000,0.00,0.09,-272.70,-272.75,-2,971,-1,19.8,4.1,-23.1,20.1,4.1,-22.9,5.73,2.00,-18.8,26.4
2015-03-09 00:54:00,0.0,1.93091,0.00042,404.839,0.035,0.1224,0.0017,140.002,45.000,34222.06270,1.93327,405.437,33.314,45.068,45.000,0.00,0.09,-272.70,-272.76,-2,971,-1,19.8,4.1,-23.2,20.1,4.1,-22.9,5.73,2.00,-18.9,26.4
2015-03-09 00:55:00,0.0,1.93094,0.00029,404.832,0.027,0.1241,0.0020,139.999,45.000,34221.07454,1.93329,405.437,33.313,45.068,45.000,0.00,0.09,-272.70,-272.76,-2,971,-1,19.8,4.1,-23.2,20.1,4.1,-22.9,5.73,1.99,-18.8,26.4
2015-03-09 00:56:00,0.0,1.93114,0.00036,404.834,0.035,0.1244,0.0016,140.000,45.000,34222.48740,1.93350,405.440,33.313,45.068,45.000,0.00,0.09,-272.69,-272.75,-2,972,-1,19.9,4.1,-23.1,20.1,4.1,-22.9,5.73,2.01,-18.8,26.4
2015-03-09 00:57:00,0.0,1.93137,0.00044,404.853,0.028,0.1238,0.0020,139.998,45.000,34219.78139,1.93373,405.457,33.298,45.068,45.000,0.00,0.09,-272.70,-272.76,-2,971,-1,19.8,4.1,-23.1,20.1,4.1,-22.9,5.73,2.00,-18.8,26.4
2015-03-09 00:58:00,0.0,1.93131,0.00035,404.839,0.034,0.1243,0.0019,139.999,45.000,34222.41889,1.93366,405.446,33.267,45.068,45.000,0.00,0.09,-272.70,-272.76,-2,971,-1,19.8,4.1,-23.1,20.1,4.1,-22.9,5.73,2.00,-18.8,26.4
2015-03-09 00:59:00,0.0,1.93145,0.00039,404.845,0.031,0.1242,0.0014,139.998,45.000,34218.97324,1.93383,405.451,33.258,45.068,45.000,0.00,0.09,-272.70,-272.75,-2,971,-1,19.8,4.1,-23.1,20.1,4.1,-22.9,5.73,1.99,-18.8,26.4
2015-03-09 01:00:00,0.0,1.93127,0.00032,404.838,0.037,0.1253,0.0021,139.997,45.000,34220.81533,1.93365,405.450,33.250,45.068,45.001,0.00,0.09,-272.70,-272.76,-2,971,-1,19.8,4.2,-23.0,20.1,4.2,-22.8,5.73,1.99,-18.8,26.5
2015-03-09 01:01:00,0.0,1.93142,0.00036,404.846,0.035,0.1251,0.0019,140.005,45.000,34221.77616,1.93380,405.456,33.250,45.068,45.000,0.00,0.09,-272.70,-272.76,-2,971,-1,19.8,4.2,-23.0,20.2,4.2,-22.8,5.73,2.00,-18.8,26.5
2015-03-09 01:02:00,0.0,1.93128,0.00032,404.842,0.028,0.1256,0.0020,139.999,45.000,34220.01403,1.93368,405.454,33.249,45.068,45.001,0.00,0.09,-272.70,-272.75,-2,971,-1,19.8,4.2,-23.0,20.1,4.2,-22.8,5.73,1.99,-18.8,26.5
2015-03-09 01:03:00,0.0,1.93109,0.00034,404.837,0.031,0.1244,0.0016,140.003,45.000,34220.64896,1.93347,405.445,33.250,45.068,45.000,0.00,0.09,-272.70,-272.75,-2,971,-1,19.8,4.2,-23.0,20.1,4.2,-22.8,5.73,2.00,-18.8,26.4
2015-03-09 01:04:00,0.0,1.93101,0.00032,404.848,0.033,0.1250,0.0016,139.999,45.000,34219.88376,1.93339,405.456,33.250,45.068,45.000,0.00,0.09,-272.70,-272.75,-2,971,-1,19.8,4.1,-23.0,20.2,4.2,-22.8,5.73,1.99,-18.8,26.4
2015-03-09 01:05:00,0.0,1.93110,0.00029,404.854,0.040,0.1246,0.0021,140.000,45.000,34222.74784,1.93347,405.463,33.244,45.068,45.000,0.00,0.09,-272.70,-272.76,-2,970,-1,19.8,4.2,-23.0,20.2,4.2,-22.8,5.73,2.00,-18.8,26.4
2015-03-09 01:06:00,0.0,1.93102,0.00032,404.833,0.017,0.1244,0.0018,140.001,45.000,34224.29562,1.93340,405.439,33.236,45.068,45.000,0.00,0.09,-272.70,-272.75,-2,971,-1,19.8,4.1,-23.1,20.2,4.1,-22.8,5.73,1.99,-18.8,26.5
2015-03-09 01:07:00,0.0,1.93099,0.00027,404.833,0.025,0.1255,0.0014,140.001,45.000,34224.55141,1.93337,405.445,33.207,45.068,45.000,0.00,0.09,-272.70,-272.75,-2,971,-1,19.8,4.2,-23.0,20.2,4.2,-22.7,5.73,2.01,-18.8,26.4
2015-03-09 01:08:00,0.0,1.93119,0.00033,404.836,0.030,0.1261,0.0018,140.001,45.000,34223.21965,1.93358,405.452,33.210,45.068,45.000,0.00,0.09,-272.69,-272.76,-2,971,-1,19.8,4.2,-22.9,20.2,4.2,-22.7,5.73,2.00,-18.8,26.5
2015-03-09 01:09:00,0.0,1.93080,0.00041,404.808,0.031,0.1250,0.0018,139.999,45.000,34225.12550,1.93320,405.417,33.240,45.068,45.000,0.00,0.09,-272.69,-272.75,-2,971,-1,19.9,4.2,-23.0,20.2,4.2,-22.7,5.73,2.00,-18.8,26.4
2015-03-09 01:10:00,0.0,1.93061,0.00035,404.838,0.035,0.1241,0.0018,140.001,45.000,34225.33997,1.93297,405.444,33.230,45.068,45.000,0.00,0.09,-272.70,-272.75,-2,971,-1,19.8,4.1,-23.1,20.2,4.1,-22.8,5.73,2.01,-18.8,26.5
2015-03-09 01:11:00,0.0,1.93091,0.00041,404.811,0.035,0.1248,0.0016,139.998,45.000,34223.72031,1.93329,405.420,33.227,45.068,45.000,0.00,0.09,-272.70,-272.76,-2,971,-1,19.9,4.1,-23.1,20.2,4.1,-22.8,5.73,2.01,-18.8,26.5
2015-03-09 01:12:00,0.0,1.93074,0.00034,404.798,0.038,0.1251,0.0014,139.998,45.000,34225.95460,1.93313,405.408,33.220,45.068,45.000,0.00,0.09,-272.69,-272.76,-2,971,-1,19.9,4.1,-23.0,20.2,4.1,-22.8,5.73,2.01,-18.8,26.5
2015-03-09 01:13:00,0.0,1.93076,0.00034,404.822,0.036,0.1245,0.0015,140.001,45.000,34228.85264,1.93312,405.430,33.229,45.068,45.000,0.00,0.09,-272.70,-272.76,-2,971,-1,19.9,4.1,-23.0,20.2,4.2,-22.8,5.73,2.02,-18.8,26.4
2015-03-09 01:14:00,0.0,1.93110,0.00039,404.857,0.022,0.1251,0.0020,140.000,45.000,34227.93856,1.93349,405.467,33.202,45.068,45.000,0.00,0.09,-272.70,-272.76,-2,971,-1,19.8,4.2,-23.0,20.2,4.2,-22.8,5.73,2.02,-18.8,26.4
2015-03-09 01:15:00,0.0,1.93123,0.00034,404.831,0.035,0.1264,0.0018,139.998,45.000,34226.60247,1.93362,405.446,33.211,45.068,45.000,0.00,0.09,-272.70,-272.76,-2,970,-1,19.9,4.2,-22.9,20.2,4.2,-22.7,5.73,2.02,-18.8,26.4
2015-03-09 01:16:00,0.0,1.93087,0.00028,404.835,0.029,0.1263,0.0016,140.001,45.000,34228.38650,1.93328,405.452,33.211,45.068,45.000,0.00,0.09,-272.70,-272.75,-2,971,-1,19.8,4.2,-23.0,20.2,4.2,-22.7,5.73,2.01,-18.8,26.5
2015-03-09 01:17:00,0.0,1.93075,0.00036,404.807,0.023,0.1257,0.0018,139.999,45.000,34228.66093,1.93317,405.419,33.210,45.068,45.000,0.00,0.09,-272.70,-272.75,-2,971,-1,19.8,4.2,-23.0,20.2,4.2,-22.7,5.73,2.02,-18.8,26.5
2015-03-09 01:18:00,0.0,1.93095,0.00037,404.845,0.028,0.1256,0.0020,140.002,45.000,34225.81299,1.93335,405.457,33.198,45.068,45.000,0.00,0.09,-272.70,-272.75,-2,971,-1,19.9,4.1,-23.0,20.2,4.2,-22.7,5.73,2.01,-18.8,26.5
2015-03-09 01:19:00,0.0,1.93087,0.00036,404.824,0.034,0.1254,0.0016,139.998,45.000,34226.28814,1.93324,405.437,33.194,45.068,45.000,0.00,0.09,-272.70,-272.75,-2,971,-1,19.8,4.2,-23.0,20.2,4.2,-22.7,5.73,2.01,-18.8,26.5
2015-03-09 01:20:00,0.0,1.93086,0.00040,404.828,0.028,0.1252,0.0015,140.000,45.000,34226.61060,1.93323,405.439,33.224,45.068,45.000,0.00,0.09,-272.70,-272.75,-2,971,-1,19.8,4.2,-23.0,20.2,4.2,-22.8,5.73,2.01,-18.8,26.5
2015-03-09 01:21:00,0.0,1.93092,0.00033,404.813,0.024,0.1254,0.0014,140.000,45.000,34224.88085,1.93332,405.425,33.246,45.068,45.000,0.00,0.09,-272.70,-272.76,-2,971,-1,19.9,4.1,-23.0,20.2,4.2,-22.8,5.73,2.01,-18.8,26.5
2015-03-09 01:22:00,0.0,1.93087,0.00050,404.814,0.032,0.1254,0.0015,140.001,45.000,34225.55110,1.93324,405.424,33.248,45.068,45.000,0.00,0.09,-272.70,-272.76,-2,971,-1,19.8,4.2,-23.0,20.2,4.2,-22.8,5.73,2.00,-18.8,26.5
2015-03-09 01:23:00,0.0,1.93095,0.00030,404.808,0.035,0.1253,0.0022,140.002,45.000,34225.14760,1.93335,405.420,33.250,45.068,45.000,0.00,0.09,-272.69,-272.76,-2,971,-2,19.9,4.2,-23.0,20.2,4.2,-22.8,5.73,2.01,-18.8,26.5
2015-03-09 01:24:00,0.0,1.93110,0.00027,404.815,0.030,0.1245,0.0017,139.996,45.000,34221.83791,1.93349,405.422,33.248,45.068,45.000,0.00,0.09,-272.70,-272.76,-2,971,-2,19.8,4.1,-23.1,20.2,4.1,-22.8,5.73,2.00,-18.8,26.5
2015-03-09 01:25:00,0.0,1.93142,0.00050,404.809,0.039,0.1252,0.0017,140.001,45.000,34221.60952,1.93377,405.419,33.237,45.068,45.000,0.00,0.09,-272.70,-272.76,-2,971,-1,19.9,4.2,-23.0,20.2,4.2,-22.7,5.73,2.00,-18.8,26.5
2015-03-09 01:26:00,0.0,1.93146,0.00040,404.839,0.037,0.1269,0.0014,139.999,45.000,34220.07756,1.93390,405.459,33.208,45.068,45.000,0.00,0.09,-272.69,-272.75,-2,971,-1,19.9,4.2,-22.9,20.2,4.2,-22.7,5.73,2.00,-18.8,26.5
2015-03-09 01:27:00,0.0,1.93097,0.00040,404.822,0.024,0.1273,0.0017,140.000,45.000,34222.43637,1.93340,405.445,33.190,45.068,45.000,0.00,0.09,-272.70,-272.76,-2,970,-1,19.9,4.2,-22.9,20.2,4.2,-22.6,5.73,2.00,-18.8,26.5
2015-03-09 01:28:00,0.0,1.93085,0.00042,404.808,0.026,0.1264,0.0017,140.000,45.000,34223.90939,1.93323,405.424,33.190,45.068,45.000,0.00,0.09,-272.70,-272.76,-2,971,-1,19.8,4.2,-22.9,20.2,4.2,-22.6,5.73,1.99,-18.8,26.5
2015-03-09 01:29:00,0.0,1.93103,0.00029,404.837,0.030,0.1257,0.0025,139.999,45.000,34224.24053,1.93342,405.450,33.188,45.068,45.000,0.00,0.09,-272.70,-272.75,-2,971,-1,19.8,4.2,-22.9,20.2,4.2,-22.7,5.73,1.99,-18.8,26.5
2015-03-09 01:30:00,0.0,1.93151,0.00039,404.826,0.041,0.1271,0.0013,140.002,45.000,34225.07946,1.93392,405.446,33.188,45.068,45.000,0.00,0.09,-272.69,-272.75,-2,970,-1,19.9,4.2,-22.8,20.2,4.2,-22.6,5.73,1.99,-18.8,26.5
2015-03-09 01:31:00,0.0,1.93156,0.00047,404.841,0.028,0.1271,0.0014,139.999,45.000,34224.50668,1.93398,405.462,33.189,45.068,45.000,0.00,0.09,-272.70,-272.75,-2,971,-1,19.8,4.2,-22.8,20.2,4.2,-22.6,5.73,1.99,-18.8,26.5
2015-03-09 01:32:00,0.0,1.93142,0.00028,404.851,0.035,0.1265,0.0016,139.998,45.000,34223.62173,1.93385,405.467,33.209,45.068,45.000,0.00,0.09,-272.70,-272.76,-2,971,-1,19.9,4.2,-22.8,20.2,4.2,-22.6,5.73,2.00,-18.8,26.5
2015-03-09 01:33:00,0.0,1.93127,0.00033,404.850,0.029,0.1263,0.0014,140.002,45.000,34224.43366,1.93367,405.466,33.248,45.068,45.000,0.00,0.09,-272.69,-272.75,-2,971,-1,19.9,4.2,-22.9,20.2,4.2,-22.7,5.73,1.99,-18.8,26.5
2015-03-09 01:34:00,0.0,1.93111,0.00038,404.831,0.035,0.1264,0.0015,140.001,45.000,34225.78627,1.93352,405.448,33.277,45.068,45.000,0.00,0.09,-272.70,-272.75,-2,971,-1,19.9,4.2,-22.9,20.2,4.2,-22.7,5.73,2.00,-18.8,26.4
2015-03-09 01:35:00,0.0,1.93128,0.00033,404.857,0.026,0.1264,0.0019,140.002,45.000,34221.88122,1.93368,405.473,33.311,45.067,45.000,0.00,0.09,-272.70,-272.76,-2,971,-1,19.9,4.2,-22.9,20.2,4.2,-22.7,5.73,2.00,-18.8,26.4
2015-03-09 01:36:00,0.0,1.93140,0.00034,404.858,0.027,0.1259,0.0020,139.998,45.000,34220.85258,1.93378,405.472,33.312,45.067,44.999,0.00,0.09,-272.69,-272.75,-2,971,-2,19.9,4.2,-22.9,20.2,4.2,-22.7,5.73,2.00,-18.8,26.5
2015-03-09 01:37:00,0.0,1.93123,0.00032,404.871,0.029,0.1264,0.0013,140.003,45.000,34224.35487,1.93366,405.488,33.313,45.067,44.999,0.00,0.09,-272.69,-272.75,-2,970,-1,19.8,4.2,-22.9,20.2,4.2,-22.7,5.73,2.01,-18.8,26.5
2015-03-09 01:38:00,0.0,1.93120,0.00043,404.836,0.033,0.1263,0.0017,140.001,45.000,34224.47365,1.93362,405.451,33.303,45.067,45.000,0.00,0.09,-272.70,-272.76,-2,971,-1,19.9,4.2,-22.9,20.2,4.2,-22.7,5.73,2.01,-18.8,26.5
2015-03-09 01:39:00,0.0,1.93124,0.00044,404.844,0.047,0.1258,0.0017,140.001,45.000,34223.52671,1.93361,405.460,33.265,45.067,45.000,0.00,0.09,-272.70,-272.75,-2,970,-1,19.9,4.2,-23.0,20.2,4.2,-22.7,5.73,2.01,-18.8,26.5
2015-03-09 01:40:00,0.0,1.93136,0.00045,404.836,0.028,0.1254,0.0017,139.999,45.000,34222.94384,1.93376,405.448,33.255,45.068,45.000,0.00,0.09,-272.70,-272.75,-2,971,-1,19.9,4.2,-23.0,20.2,4.2,-22.7,5.73,2.02,-18.8,26.5
2015-03-09 01:41:00,0.0,1.93144,0.00041,404.837,0.029,0.1264,0.0015,140.000,45.000,34225.08795,1.93386,405.452,33.251,45.068,45.000,0.00,0.09,-272.70,-272.76,-2,971,-1,19.9,4.2,-22.9,20.2,4.2,-22.6,5.73,2.02,-18.8,26.5
2015-03-09 01:42:00,0.0,1.93099,0.00034,404.839,0.026,0.1272,0.0011,139.999,45.000,34224.61960,1.93341,405.460,33.266,45.068,45.000,0.00,0.09,-272.70,-272.76,-2,971,-1,19.9,4.2,-22.8,20.2,4.2,-22.6,5.73,2.02,-18.8,26.5
2015-03-09 01:43:00,0.0,1.93137,0.00031,404.859,0.038,0.1275,0.0012,140.001,45.000,34224.22105,1.93378,405.482,33.299,45.068,45.000,0.00,0.09,-272.69,-272.75,-2,971,-2,19.9,4.2,-22.8,20.2,4.2,-22.6,5.73,2.02,-18.7,26.5
2015-03-09 01:44:00,0.0,1.93169,0.00034,404.858,0.027,0.1265,0.0016,140.001,45.000,34221.38922,1.93411,405.475,33.287,45.068,45.000,0.00,0.09,-272.70,-272.76,-2,970,-2,19.9,4.2,-22.8,20.2,4.2,-22.6,5.73,2.02,-18.7,26.5
2015-03-09 01:45:00,0.0,1.93195,0.00039,404.865,0.027,0.1285,0.0018,139.997,45.000,34219.92739,1.93439,405.492,33.292,45.068,45.000,0.00,0.09,-272.70,-272.76,-2,971,-1,19.9,4.2,-22.7,20.2,4.2,-22.5,5.73,2.02,-18.7,26.5
2015-03-09 01:46:00,0.0,1.93160,0.00031,404.852,0.038,0.1290,0.0016,139.998,45.000,34224.14795,1.93405,405.482,33.290,45.068,45.000,0.00,0.09,-272.70,-272.75,-2,970,-1,19.9,4.2,-22.7,20.2,4.3,-22.4,5.73,2.01,-18.7,26.5